Monett, MO

1:03 AM CDT on October 23, 2019 (GMT -0500)
Monett

Weather History for KHFJ - August, 2019

Change the Weather History Date:

Friday, August 9, 2019

  Actual Average (WUND) Record (WUND)
Temperature  
Mean Temperature 76 °F -  
Max Temperature 82 °F - - (-1)
Min Temperature 69 °F - - (-1)
Cooling Degree Days 10    
Growing Degree Days 26 (Base 50)    
Moisture  
Dew Point 72 °F    
Average Humidity 92    
Maximum Humidity 100    
Minimum Humidity 70    
Precipitation  
Precipitation 0.00 in - - ()
Sea Level Pressure  
Sea Level Pressure 29.98 in    
Wind  
Wind Speed 2 mph ()    
Max Wind Speed 7 mph    
Max Gust Speed -    
Visibility 7.5 miles    
Events Fog    
Averages and records for this station are not official NWS values.
T = Trace of Precipitation, MM = Missing Value Source: Averaged Metar Reports

Daily Weather History Graph

Daily Weather History Graph

Search for Another Location

Airport or City:

Astronomy

Aug. 09, 2019 Rise Set
Actual Time 6:27 AM CDT 8:14 PM CDT
Civil Twilight 5:59 AM CDT 8:42 PM CDT
Nautical Twilight 5:25 AM CDT 9:16 PM CDT
Astronomical Twilight 4:49 AM CDT 9:52 PM CDT
Moon 3:54 PM CDT (8/9) 1:26 AM CDT (8/9)
Length of Visible Light 14h 42m
Length of Day
13h 46m
Waxing Gibbous, 70% of the Moon is Illuminated
Aug 9
Waxing Gibbous
Aug 15
Full
Aug 23
Last Quarter
Aug 30
New
Sep 5
First Quarter

Hourly Weather History & Observations

Time (CDT) Temp. Heat Index Dew Point Humidity Pressure Visibility Wind Dir Wind Speed Gust Speed Precip Events Conditions
12:15 AM 69.8 °F - 69.8 °F 100% 29.98 in 10.0 mi East 5.8 mph - N/A   Mostly Cloudy
12:35 AM 69.8 °F - 69.8 °F 100% 29.99 in 10.0 mi East 3.5 mph - N/A   Mostly Cloudy
12:55 AM 69.8 °F - 69.8 °F 100% 29.98 in 10.0 mi ESE 5.8 mph - N/A   Mostly Cloudy
1:35 AM 69.8 °F - 69.8 °F 100% 29.98 in 10.0 mi SSE 4.6 mph - N/A   Overcast
1:55 AM 69.8 °F - 69.8 °F 100% 29.97 in 10.0 mi SSE 3.5 mph - N/A   Overcast
2:15 AM 69.8 °F - 69.8 °F 100% 29.95 in 10.0 mi SE 3.5 mph - N/A   Mostly Cloudy
2:35 AM 69.8 °F - 69.8 °F 100% 29.95 in 10.0 mi ESE 4.6 mph - N/A   Scattered Clouds
2:55 AM 69.8 °F - 69.8 °F 100% 29.95 in 10.0 mi SE 4.6 mph - N/A   Clear
3:15 AM 69.8 °F - 69.8 °F 100% 29.95 in 7.0 mi SE 4.6 mph - N/A   Mostly Cloudy
3:35 AM 69.8 °F - 69.8 °F 100% 29.95 in 2.5 mi SE 3.5 mph - N/A   Overcast
3:55 AM 69.8 °F - 69.8 °F 100% 29.96 in 1.2 mi Calm Calm - N/A   Overcast
4:15 AM 69.8 °F - 69.8 °F 100% 29.96 in 1.0 mi SSE 3.5 mph - N/A   Overcast
4:35 AM 69.8 °F - 69.8 °F 100% 29.95 in 0.5 mi Calm Calm - N/A Fog Fog
4:55 AM 69.8 °F - 69.8 °F 100% 29.96 in 0.5 mi Calm Calm - N/A Fog Fog
5:15 AM 69.8 °F - 69.8 °F 100% 29.96 in 0.2 mi Calm Calm - N/A Fog Fog
5:35 AM 69.8 °F - 69.8 °F 100% 29.96 in 0.2 mi ESE 3.5 mph - N/A Fog Fog
5:55 AM 69.8 °F - 69.8 °F 100% 29.96 in 0.2 mi Calm Calm - N/A Fog Fog
6:15 AM 69.8 °F - 69.8 °F 100% 29.97 in 0.2 mi Calm Calm - N/A Fog Fog
6:35 AM 69.8 °F - 69.8 °F 100% 29.97 in 0.2 mi Calm Calm - N/A Fog Fog
6:55 AM 69.8 °F - 69.8 °F 100% 29.99 in 0.2 mi ESE 3.5 mph - N/A Fog Fog
7:15 AM 69.8 °F - 69.8 °F 100% 29.99 in 0.2 mi Calm Calm - N/A Fog Fog
7:35 AM 69.8 °F - 69.8 °F 100% 29.99 in 0.2 mi Calm Calm - N/A Fog Fog
7:55 AM 69.8 °F - 69.8 °F 100% 30.00 in 0.5 mi Calm Calm - N/A Fog Fog
8:15 AM 69.8 °F - 69.8 °F 100% 30.01 in 0.5 mi Calm Calm - N/A Fog Fog
8:35 AM 69.8 °F - 69.8 °F 100% 30.01 in 0.5 mi Calm Calm - N/A Fog Fog
8:55 AM 69.8 °F - 69.8 °F 100% 30.01 in 0.5 mi Calm Calm - N/A Fog Fog
9:15 AM 71.6 °F - 71.6 °F 100% 30.01 in 5.0 mi Calm Calm - N/A   Overcast
9:35 AM 71.6 °F - 71.6 °F 100% 30.00 in 10.0 mi NNE 3.5 mph - N/A   Overcast
9:55 AM 71.6 °F - 71.6 °F 100% 30.00 in 10.0 mi NNE 3.5 mph - N/A   Overcast
10:15 AM 71.6 °F - 71.6 °F 100% 30.01 in 10.0 mi North 3.5 mph - N/A   Overcast
10:35 AM 73.4 °F - 73.4 °F 100% 30.02 in 10.0 mi NNE 3.5 mph - N/A   Overcast
10:55 AM 73.4 °F - 73.4 °F 100% 30.03 in 10.0 mi NE 3.5 mph - N/A   Overcast
11:20 AM 75.2 °F - 73.4 °F 94% 30.02 in 10.0 mi North 3.5 mph - N/A   Overcast
11:35 AM 77.0 °F - 73.4 °F 89% 30.03 in 10.0 mi North 3.5 mph - N/A   Overcast
11:55 AM 77.0 °F - 73.4 °F 89% 30.04 in 10.0 mi Calm Calm - N/A   Overcast
12:15 PM 78.8 °F - 73.4 °F 83% 30.03 in 10.0 mi Calm Calm - N/A   Overcast
12:55 PM 78.8 °F - 75.2 °F 89% 30.02 in 10.0 mi SW 4.6 mph - N/A   Overcast
1:15 PM 78.8 °F - 75.2 °F 89% 30.01 in 10.0 mi SSW 6.9 mph - N/A   Mostly Cloudy
1:35 PM 78.8 °F - 73.4 °F 83% 30.00 in 10.0 mi West 4.6 mph - N/A   Mostly Cloudy
1:55 PM 78.8 °F - 73.4 °F 83% 30.00 in 10.0 mi WSW 3.5 mph - N/A   Mostly Cloudy
2:15 PM 78.8 °F - 73.4 °F 83% 29.99 in 10.0 mi Calm Calm - N/A   Overcast
2:35 PM 80.6 °F 85.4 °F 73.4 °F 79% 29.99 in 10.0 mi Calm Calm - N/A   Mostly Cloudy
2:55 PM 80.6 °F 85.4 °F 73.4 °F 79% 29.98 in 10.0 mi Calm Calm - N/A   Scattered Clouds
3:15 PM 80.6 °F 85.4 °F 73.4 °F 79% 29.97 in 10.0 mi South 3.5 mph - N/A   Scattered Clouds
3:35 PM 80.6 °F 85.4 °F 73.4 °F 79% 29.97 in 10.0 mi Calm Calm - N/A   Scattered Clouds
3:55 PM 80.6 °F 85.4 °F 73.4 °F 79% 29.97 in 10.0 mi Calm Calm - N/A   Mostly Cloudy
4:15 PM 80.6 °F 85.4 °F 73.4 °F 79% 29.96 in 10.0 mi Calm Calm - N/A   Scattered Clouds
4:35 PM 82.4 °F 87.2 °F 71.6 °F 70% 29.96 in 10.0 mi Calm Calm - N/A   Clear
4:55 PM 82.4 °F 87.2 °F 71.6 °F 70% 29.95 in 10.0 mi Calm Calm - N/A   Clear
5:15 PM 82.4 °F 88.2 °F 73.4 °F 74% 29.95 in 10.0 mi Calm Calm - N/A   Mostly Cloudy
5:35 PM 82.4 °F 88.2 °F 73.4 °F 74% 29.95 in 10.0 mi Calm Calm - N/A   Mostly Cloudy
5:55 PM 82.4 °F 87.2 °F 71.6 °F 70% 29.95 in 10.0 mi Calm Calm - N/A   Mostly Cloudy
6:15 PM 82.4 °F 87.2 °F 71.6 °F 70% 29.95 in 10.0 mi ENE 3.5 mph - N/A   Overcast
6:55 PM 82.4 °F 88.2 °F 73.4 °F 74% 29.94 in 10.0 mi Calm Calm - N/A   Clear
7:15 PM 80.6 °F 85.4 °F 73.4 °F 79% 29.94 in 10.0 mi SE 3.5 mph - N/A   Scattered Clouds
7:35 PM 80.6 °F 85.4 °F 73.4 °F 79% 29.95 in 10.0 mi Calm Calm - N/A   Scattered Clouds
7:55 PM 78.8 °F - 75.2 °F 89% 29.94 in 10.0 mi Calm Calm - N/A   Clear
8:15 PM 78.8 °F - 75.2 °F 89% 29.94 in 10.0 mi Calm Calm - N/A   Clear
8:35 PM 77.0 °F - 75.2 °F 94% 29.95 in 10.0 mi Calm Calm - N/A   Clear
8:55 PM 77.0 °F - 75.2 °F 94% 29.95 in 10.0 mi SSE 3.5 mph - N/A   Clear
9:15 PM 77.0 °F - 75.2 °F 94% 29.96 in 10.0 mi SSE 3.5 mph - N/A   Clear
9:35 PM 75.2 °F - 75.2 °F 100% 29.96 in 10.0 mi South 3.5 mph - N/A   Clear
9:55 PM 75.2 °F - 75.2 °F 100% 29.97 in 10.0 mi South 3.5 mph - N/A   Clear
10:15 PM 73.4 °F - 73.4 °F 100% 29.99 in 10.0 mi Calm Calm - N/A   Clear
10:35 PM 73.4 °F - 73.4 °F 100% 30.00 in 10.0 mi Calm Calm - N/A   Scattered Clouds
10:55 PM 73.4 °F - 73.4 °F 100% 30.00 in 10.0 mi Calm Calm - N/A   Clear
11:15 PM 73.4 °F - 73.4 °F 100% 30.00 in 10.0 mi Calm Calm - N/A   Clear
11:35 PM 73.4 °F - 73.4 °F 100% 30.00 in 10.0 mi SE 3.5 mph - N/A   Clear
11:55 PM 73.4 °F - 73.4 °F 100% 30.00 in 7.0 mi SE 3.5 mph - N/A   Clear